Location: Brookhaven
(40.7793°N, 72.9154°W)
Time: 14:31:19
(UTC+00:00)

Daily predictions for brighter satellites

Satellite Brightness Start Highest point End
(mag) Time Altitude Azimuth Time Altitude Azimuth Time Altitude Azimuth
Meteor 1-25 Rocket 4.2 21:42:30 10° N 21:48:06 75° E 21:53:44 10° SSE
Cosmos 540 Rocket 3.6 21:44:41 10° SSW 21:49:47 82° WNW 21:54:55 10° NNE
NOAA 6 4.3 21:46:00 10° SE 21:50:51 44° ENE 21:55:42 10° N
USA 234 3.9 21:45:23 10° E 21:51:15 37° NNE 21:57:07 10° NW
Cosmos 1782 2.9 21:50:47 10° S 21:54:43 60° E 21:58:38 10° NNE
CZ-2C R/B 3.9 21:51:58 10° NE 21:55:42 20° E 21:59:25 10° SE
Cosmos 1743 Rocket 3.9 21:51:37 10° NNW 21:55:56 72° W 22:00:15 10° S
COSMOS 2406 3.7 21:50:54 10° SW 21:56:35 64° WNW 22:02:18 10° NNE
Cosmos 858 Rocket 4.5 21:54:41 10° NNW 22:00:00 80° ENE 22:05:15 10° SSE
SL-24 R/B - RUBIN 2 3.5 21:59:23 10° NNW 22:03:50 64° NE 22:08:06 10° SE
Cosmos 1328 Rocket 4.5 22:01:08 10° SSE 22:04:57 29° E 22:08:47 10° NNE
Cosmos 2279 Rocket 4.3 21:59:14 10° SSE 22:05:06 46° E 22:10:58 10° NNE
CZ-4C R/B 3.2 21:59:09 10° NNW 22:06:20 54° NE 22:14:35 10° SE
Cosmos 1666 Rocket 4.1 22:03:05 10° N 22:07:13 37° ENE 22:11:18 10° SE
Cosmos 1666 3.4 22:04:14 10° NNE 22:07:33 30° ENE 22:10:50 10° SE
Cosmos 1627 Rocket 4.4 22:01:26 10° N 22:07:36 77° E 22:13:42 10° SSE
Okean O Rocket 3.0 22:07:17 10° ESE 22:10:17 18° ENE 22:13:18 10° NNE
CZ-4B R/B 3.9 22:06:38 10° ESE 22:11:10 28° ENE 22:15:39 10° N
SMAP 3.0 22:06:50 10° SSE 22:11:28 70° ENE 22:16:06 10° N
Meteor 2-14 Rocket 4.4 22:07:02 10° N 22:13:09 77° E 22:19:12 10° SSE
Lacrosse 5 rocket 2.4 22:14:45 10° NNW 22:18:06 26° NE 22:20:52 14° E
Cosmos 1814 Rocket 4.0 22:12:54 10° SSW 22:18:07 82° ESE 22:23:19 10° NNE
PAYLOAD B 4.4 22:17:06 10° SE 22:22:30 52° ENE 22:27:56 10° N
Cosmos 1570 Rocket 4.0 22:17:30 10° SSW 22:22:44 78° ESE 22:27:58 10° NNE
Sich 1 3.3 22:20:41 10° NNW 22:24:59 72° W 22:29:17 10° S
SKYMED 2 4.3 22:21:44 10° NNE 22:25:40 32° E 22:29:33 10° SSE
CZ-2C R/B 2.7 22:22:04 10° SW 22:25:53 30° SSE 22:29:17 12° ESE
Cosmos 1634 Rocket 4.3 22:20:03 10° SSW 22:26:22 76° W 22:32:43 10° N
Cosmos 2360 Rocket 3.8 22:24:58 10° NNE 22:27:51 14° NE 22:28:09 14° NE
MOS 1-B Rocket 4.3 22:22:27 10° NNE 22:28:33 61° ESE 22:35:36 10° S
Cosmos 2026 Rocket 4.2 22:23:30 10° N 22:29:36 74° W 22:35:37 10° S
PSLV R/B 3.6 22:27:08 10° SSE 22:30:45 65° ENE 22:34:29 10° N
ISS -3.7 22:29:01 10° NW 22:32:24 81° SW 22:35:47 10° SE
deb Chang Zheng 4 4.2 22:28:41 10° SE 22:32:33 33° ENE 22:36:25 10° N
Cosmos 44 Rocket 3.6 22:28:19 10° NNW 22:32:59 43° NE 22:37:29 10° ESE
Meteor 2-8 Rocket 4.5 22:28:39 10° S 22:34:40 60° E 22:40:43 10° NNE
Cosmos 1812 2.9 22:31:12 10° SSW 22:35:03 74° W 22:38:54 10° N
Meteor 2-21 Rocket 4.4 22:34:34 10° N 22:40:41 88° W 22:46:44 10° S
Aureole 3 Rocket 4.3 22:39:20 10° SE 22:43:00 27° E 22:47:34 11° NNE
Cosmos 1544 3.7 22:43:05 10° NNE 22:46:22 32° ENE 22:49:38 10° SE
Cosmos 1818 3.6 22:41:21 10° NNW 22:46:47 59° NE 22:52:08 10° SE
Cosmos 2322 Rocket 2.9 22:45:33 10° N 22:50:35 31° ENE 22:52:58 23° E
Cosmos 1515 Rocket 3.7 22:46:43 10° SSE 22:50:59 49° E 22:54:13 17° NNE
Meteor 1-10 Rocket 4.2 22:46:35 10° S 22:52:17 64° E 22:57:53 10° NNE
Cosmos 1980 Rocket 3.1 22:48:55 10° NNW 22:54:24 52° WSW 22:59:48 10° S
USA 305 4.2 22:53:04 10° NNW 22:56:31 24° NNE 22:56:43 23° NNE
Meteor 1-11 Rocket 4.0 22:51:09 10° N 22:56:36 46° ENE 23:02:07 10° SSE
Cosmos 921 Rocket 2.9 22:53:24 10° SSW 22:57:34 86° WNW 23:00:52 17° NNE
Cosmos 1356 Rocket 3.8 22:53:42 10° N 22:57:40 39° ENE 23:01:40 10° SE
APEX 2.9 22:54:00 10° SSW 22:57:59 84° ESE 22:59:14 37° NNE
SJ-11-01 4.3 22:54:05 10° SSE 22:58:45 59° ENE 23:03:24 10° N
USA 267 4.0 22:56:58 15° NE 23:02:00 45° NNW 23:08:07 10° W
Tiangong 2.8 23:01:51 10° SSW 23:04:10 22° SSE 23:04:10 22° SSE
Cosmos 1655 Rocket 3.9 22:58:41 10° N 23:05:04 68° E 23:11:21 10° SSE
DEBRIS 2.9 23:03:11 10° SSW 23:05:30 47° SE 23:05:58 43° ESE
CZ-4 R/B 4.3 23:02:55 10° SSE 23:06:59 65° ENE 23:11:06 10° N
YAOGAN 3 4.4 23:02:46 10° SSE 23:07:05 69° ENE 23:11:26 10° N
Cosmos 2150 Rocket 3.9 23:02:22 10° NNW 23:07:32 65° ENE 23:12:45 10° SSE
Cosmos 1867 3.6 23:03:18 10° SSW 23:08:37 59° ESE 23:10:44 35° NE
H-2A R/B 2.5 23:04:50 10° S 23:09:56 63° WSW 23:14:56 10° NNW
Cosmos 2082 Rocket 4.0 23:05:28 10° WSW 23:10:18 28° NW 23:15:10 10° N
SL-16 R/B 2.2 23:05:11 10° NNW 23:10:47 58° ENE 23:16:22 10° SE
ARGOS 3.0 23:06:39 10° SSE 23:12:03 79° ENE 23:17:28 10° N
COSMO-SKYMED 1 2.7 23:09:48 12° N 23:13:48 72° WNW 23:18:07 10° SSW
Feng Yun 1-1 Rocket 4.4 23:08:46 10° SE 23:14:30 54° ENE 23:20:12 10° N
USA 32 3.9 23:10:54 10° S 23:16:02 63° E 23:19:45 19° NNE
Cosmos 1125 Rocket 3.4 23:10:49 10° NNW 23:16:04 72° ENE 23:21:20 10° SSE
Cosmos 1633 Rocket 4.2 23:12:01 10° NNW 23:16:11 43° W 23:20:20 10° SSW
SL-08 RB Rocket 3.6 23:19:04 10° SSE 23:23:40 73° ENE 23:28:16 10° N
X-37B 1.8 23:21:08 10° WSW 23:23:03 37° W 23:23:03 37° W
Landsat 5 3.4 23:23:03 41° N 23:24:23 78° WNW 23:28:17 10° SSW
Cosmos 2333 Rocket 4.1 23:24:25 10° N 23:25:38 14° NNE 23:25:38 14° NNE
USA 306 4.3 23:25:10 10° NW 23:27:42 27° N 23:27:42 27° N
USA 234 3.3 23:28:32 16° SE 23:33:53 80° SW 23:40:27 10° NW
CZ-2C R/B 3.4 23:31:17 10° N 23:36:14 48° WNW 23:41:11 10° SW
Cosmos 2219 Rocket 4.4 23:35:43 10° N 23:35:58 11° N 23:35:58 11° N
NOSS 3-3 (A) 3.6 23:37:05 10° SSW 23:42:38 79° ESE 23:43:33 64° NE
Cosmos 1933 Rocket 3.8 23:38:23 10° NNW 23:42:41 65° W 23:46:58 10° S
NOSS 3-3 (C) 3.6 23:37:10 10° SSW 23:42:44 78° ESE 23:43:37 64° ENE
Okean O Rocket 2.7 23:42:02 10° S 23:46:17 44° W 23:50:33 10° NNW
DMSP 5D-2 F-14 4.5 23:43:12 10° SSE 23:48:38 82° ENE 23:54:06 10° NNW
IRAS Rocket 4.3 23:54:48 62° SSE 23:54:48 62° SSE 23:59:27 10° S
ATLAS 5 CENTAUR R/B 3.9 23:53:08 10° NW 23:54:52 20° NW 23:54:52 20° NW
